Weather in Kolyubakino

Russia / Moscow Oblast     55°40′03″N   36°31′46″E
В апреле 2022 года жителям России запретили посещать сайт meteo.paraplan.net по решению Генеральной прокуратуры. Аудитория сайта уменьшилась в 10 раз. Владельцы сайта не видят смысла в поддержке погодного сервера в таких условиях. Сайт будет закрыт в октябре.
temp.,
°C
wind,
m/s
gust,
m/s
humid.,
%
clouds,
%
prec.,
mm/h
press.,
hPa
HPBL,
m
3 october, mon
mon300:00+9ene61594100 3.4 999583
03:00+11e61698100 6.4 995795
06:00+13ese71496100 1.6 992961
09:00+14ese71494100 4.6 9901206
12:00+12sse51390100 2.4 9921075
15:00+9sse61381100 2.5 9951487
18:00+7se61386100 0.3 9971451
21:00+7sse71490100 1.1 9981428
4 october, tue
tue400:00+8sse71790100 0.8 10001715
03:00+9sse81685100 2.6 10001467
06:00+9sse81780100 0.1 10011544
09:00+8s51291100 1.6 10031368
12:00+6sse61189100 2.3 10061021
15:00+8sse6138498 2.5 10061368
18:00+7s61191100 1.6 10071154
21:00+6s51090100 1.9 1008858
5 october, wed
wed500:00+6s3694100 0.4 1008949
03:00+6ssw4693100 1.3 10081044
06:00+5ssw3693100 0.5 1009913
09:00+5sw2693100 0.9 1010783
12:00+5wsw4687100 0.3 1012814
15:00+6w378692 0.4 1014766
18:00+5w379291 0.2 1015333
21:00+5w369360 0.3 1016408
6 october, thu
thu600:00+3w259711 0.0 1016112
03:00+3w239868 0.0 101786
06:00+5ssw2497100 0.1 1016153
09:00+6sse2698100 0.6 1016259
12:00+8ssw3899100 0.3 1015402
15:00+9sw31097100 0.3 1014463
18:00+10sw4129558 0.2 1014521
21:00+10wsw4149540 0.2 1014572
7 october, fri
fri700:00+11w5139285 0.1 1014841
03:00+9w413927 0.1 1016645
06:00+9w61186100 0.0 1017789
09:00+8w51083100 0.0 10181000
12:00+10w61281100 0.1 10191228
15:00+12w6127310 0.1 10191281
18:00+10w512790 0.0 1020698
21:00+8wsw312904 0.0 1022399